Location: Christian Reformed Church
(43.0975°N, 93.8113°W)
Time: 07:35:00
(UTC+00:00)

Okean 1-7 Rocket - Pass Details

Date: 20 March 2026
Orbit: 609 x 643 km, 82.5° (Epoch: 14 April)

Event Time Altitude Azimuth Distance (km) Brightness Sun altitude
Rises 11:40:43 0° 344° (NNW) 2,917 6.9 -7.7°
Reaches altitude 10° 11:43:04 10° 337° (NNW) 2,000 6.0 -7.3°
Maximum altitude 11:47:12 41° 268° (W) 908 4.0 -6.5°
Drops below altitude 10° 11:51:17 10° 199° (SSW) 1,967 5.9 -5.8°
Sets 11:53:34 0° 192° (SSW) 2,863 6.8 -5.3°
